• In Kazakhstan
  • List of Countries
  • For 7 days
  • Water Temperature
  • Satellite Maps
  • Weather Map
  • News
  • Weather Widgets
  • user-avatar
    Login

    Hourly Weather Topeka

    Today, 25 September, Monday

    Time Temperature Precipitation Wind Pressure Humidity
    00:00 +23°C° 0 mm 4 mps 734 mmHg 78%
    01:00 +23°C° 0.2 mm 4 mps 734 mmHg 81%
    02:00 +22°C° 0.2 mm 4 mps 734 mmHg 84%
    03:00 +22°C° 0.2 mm 3 mps 734 mmHg 87%
    04:00 +22°C° 0.3 mm 3 mps 734 mmHg 88%
    05:00 +21°C° 0.3 mm 3 mps 734 mmHg 90%
    06:00 +21°C° 0.3 mm 3 mps 734 mmHg 91%
    07:00 +22°C° 1.5 mm 3 mps 734 mmHg 87%
    08:00 +25°C° 1.5 mm 3 mps 735 mmHg 82%
    09:00 +26°C° 1.5 mm 3 mps 735 mmHg 77%
    10:00 +27°C° 1.3 mm 4 mps 735 mmHg 70%
    11:00 +29°C° 1.3 mm 4 mps 735 mmHg 63%
    12:00 +30°C° 1.3 mm 4 mps 735 mmHg 56%
    13:00 +30°C° 0.4 mm 4 mps 734 mmHg 55%
    14:00 +30°C° 0.4 mm 4 mps 734 mmHg 54%
    15:00 +30°C° 0.4 mm 4 mps 734 mmHg 54%
    16:00 +29°C° 0.3 mm 3 mps 734 mmHg 60%
    17:00 +28°C° 0.3 mm 3 mps 734 mmHg 66%
    18:00 +26°C° 0.3 mm 2 mps 734 mmHg 72%
    19:00 +25°C° 1.1 mm 2 mps 734 mmHg 76%
    20:00 +25°C° 1.1 mm 2 mps 734 mmHg 79%
    21:00 +24°C° 1.1 mm 1 mps 734 mmHg 83%
    22:00 +23°C° 1.5 mm 1 mps 734 mmHg 85%
    23:00 +23°C° 1.5 mm 1 mps 734 mmHg 88%

    Tomorrow, 26 September, Tuesday

    Time Temperature Precipitation Wind Pressure Humidity
    00:00 +23°C° 1.5 mm 1 mps 734 mmHg 90%
    01:00 +23°C° 1.5 mm 1 mps 734 mmHg 90%
    02:00 +23°C° 1.5 mm 1 mps 734 mmHg 91%
    03:00 +22°C° 1.5 mm 1 mps 734 mmHg 91%
    04:00 +21°C° 1.7 mm 2 mps 735 mmHg 92%
    05:00 +21°C° 1.7 mm 2 mps 735 mmHg 93%
    06:00 +21°C° 1.7 mm 2 mps 735 mmHg 93%
    07:00 +21°C° 1 mm 2 mps 736 mmHg 92%
    08:00 +23°C° 1 mm 2 mps 736 mmHg 91%
    09:00 +23°C° 1 mm 2 mps 737 mmHg 89%
    10:00 +23°C° 0.3 mm 2 mps 737 mmHg 86%
    11:00 +24°C° 0.3 mm 2 mps 737 mmHg 83%
    12:00 +24°C° 0.3 mm 2 mps 737 mmHg 80%
    13:00 +24°C° 0.1 mm 3 mps 737 mmHg 80%
    14:00 +22°C° 0.1 mm 3 mps 737 mmHg 81%
    15:00 +22°C° 0.1 mm 4 mps 737 mmHg 81%
    16:00 +21°C° 0.1 mm 3 mps 737 mmHg 83%
    17:00 +21°C° 0.1 mm 3 mps 737 mmHg 85%
    18:00 +20°C° 0.1 mm 3 mps 737 mmHg 87%
    19:00 +20°C° 0 mm 3 mps 737 mmHg 88%
    20:00 +19°C° 0 mm 3 mps 738 mmHg 88%
    21:00 +19°C° 0 mm 3 mps 738 mmHg 89%
    22:00 +19°C° 0.1 mm 3 mps 738 mmHg 90%
    23:00 +19°C° 0.1 mm 3 mps 738 mmHg 90%

    Day after tomorrow, 27 September, Wednesday

    Time Temperature Precipitation Wind Pressure Humidity
    00:00 +19°C° 0.1 mm 3 mps 739 mmHg 91%
    01:00 +18°C° 0.1 mm 4 mps 739 mmHg 91%
    02:00 +18°C° 0.2 mm 4 mps 739 mmHg 91%
    03:00 +18°C° 0.2 mm 4 mps 739 mmHg 91%
    04:00 +18°C° 0.1 mm 4 mps 739 mmHg 90%
    05:00 +18°C° 0.1 mm 4 mps 740 mmHg 88%
    06:00 +17°C° 0.1 mm 4 mps 740 mmHg 87%
    07:00 +16°C° 0 mm 5 mps 740 mmHg 85%
    08:00 +16°C° 0 mm 5 mps 741 mmHg 83%
    09:00 +16°C° 0 mm 5 mps 741 mmHg 82%
    10:00 +17°C° 0 mm 5 mps 742 mmHg 76%
    11:00 +19°C° 0 mm 5 mps 742 mmHg 71%
    12:00 +20°C° 0 mm 4 mps 742 mmHg 66%
    13:00 +21°C° 0 mm 5 mps 742 mmHg 60%
    14:00 +22°C° 0 mm 5 mps 741 mmHg 55%
    15:00 +22°C° 0 mm 5 mps 741 mmHg 50%
    16:00 +21°C° 0 mm 4 mps 741 mmHg 53%
    17:00 +20°C° 0 mm 4 mps 741 mmHg 57%
    18:00 +19°C° 0 mm 3 mps 741 mmHg 61%
    19:00 +18°C° 0 mm 3 mps 741 mmHg 62%
    20:00 +18°C° 0 mm 3 mps 742 mmHg 63%
    21:00 +17°C° 0 mm 3 mps 742 mmHg 64%
    22:00 +16°C° 0 mm 3 mps 742 mmHg 65%
    23:00 +16°C° 0 mm 2 mps 742 mmHg 65%

    28 September, Thursday

    Time Temperature Precipitation Wind Pressure Humidity
    00:00 +16°C° 0 mm 2 mps 742 mmHg 66%
    01:00 +15°C° 0 mm 2 mps 742 mmHg 67%
    02:00 +15°C° 0 mm 2 mps 742 mmHg 67%
    03:00 +14°C° 0 mm 2 mps 742 mmHg 68%
    04:00 +14°C° 0 mm 1 mps 742 mmHg 69%
    05:00 +13°C° 0 mm 1 mps 742 mmHg 70%
    06:00 +13°C° 0 mm 1 mps 742 mmHg 71%
    07:00 +15°C° 0 mm 1 mps 743 mmHg 66%
    08:00 +17°C° 0 mm 2 mps 743 mmHg 61%
    09:00 +19°C° 0 mm 2 mps 743 mmHg 56%
    10:00 +20°C° 0 mm 2 mps 743 mmHg 51%
    11:00 +23°C° 0 mm 2 mps 743 mmHg 47%
    12:00 +25°C° 0 mm 2 mps 743 mmHg 43%
    13:00 +25°C° 0 mm 2 mps 742 mmHg 42%
    14:00 +25°C° 0 mm 2 mps 742 mmHg 42%
    15:00 +26°C° 0 mm 2 mps 741 mmHg 41%
    16:00 +24°C° 0 mm 2 mps 741 mmHg 46%
    17:00 +23°C° 0 mm 1 mps 741 mmHg 51%
    18:00 +21°C° 0 mm 1 mps 741 mmHg 56%
    19:00 +21°C° 0 mm 1 mps 741 mmHg 57%
    20:00 +18°C° 0 mm 0 mps 741 mmHg 59%
    21:00 +17°C° 0 mm 0 mps 742 mmHg 60%
    22:00 +17°C° 0 mm 0 mps 741 mmHg 61%
    23:00 +18°C° 0 mm 1 mps 741 mmHg 62%

    29 September, Friday

    Time Temperature Precipitation Wind Pressure Humidity
    00:00 +18°C° 0 mm 1 mps 741 mmHg 63%
    01:00 +18°C° 0 mm 1 mps 741 mmHg 64%
    02:00 +16°C° 0 mm 2 mps 742 mmHg 65%
    03:00 +16°C° 0 mm 2 mps 742 mmHg 66%
    04:00 +16°C° 0 mm 2 mps 742 mmHg 67%
    05:00 +15°C° 0 mm 2 mps 742 mmHg 69%
    06:00 +15°C° 0 mm 2 mps 742 mmHg 70%
    07:00 +17°C° 0 mm 2 mps 743 mmHg 66%
    08:00 +18°C° 0 mm 2 mps 743 mmHg 61%
    09:00 +20°C° 0 mm 3 mps 743 mmHg 57%
    10:00 +21°C° 0 mm 3 mps 743 mmHg 53%
    11:00 +22°C° 0 mm 3 mps 743 mmHg 50%
    12:00 +25°C° 0 mm 3 mps 743 mmHg 46%
    13:00 +25°C° 0 mm 3 mps 742 mmHg 44%
    14:00 +26°C° 0 mm 3 mps 742 mmHg 42%
    15:00 +26°C° 0 mm 3 mps 741 mmHg 40%
    16:00 +25°C° 0 mm 3 mps 741 mmHg 45%
    17:00 +22°C° 0 mm 3 mps 741 mmHg 51%
    18:00 +20°C° 0 mm 2 mps 741 mmHg 56%
    19:00 +19°C° 0 mm 2 mps 741 mmHg 58%
    20:00 +18°C° 0 mm 3 mps 742 mmHg 60%
    21:00 +17°C° 0 mm 3 mps 742 mmHg 62%
    22:00 +17°C° 0 mm 3 mps 742 mmHg 64%
    23:00 +16°C° 0 mm 3 mps 742 mmHg 65%

    30 September, Saturday

    Time Temperature Precipitation Wind Pressure Humidity
    00:00 +16°C° 0 mm 3 mps 742 mmHg 67%
    01:00 +14°C° 0 mm 3 mps 742 mmHg 67%
    02:00 +14°C° 0 mm 3 mps 742 mmHg 66%
    03:00 +14°C° 0 mm 3 mps 742 mmHg 66%
    04:00 +13°C° 0 mm 3 mps 742 mmHg 63%
    05:00 +13°C° 0 mm 3 mps 742 mmHg 61%
    06:00 +13°C° 0 mm 3 mps 742 mmHg 58%
    07:00 +14°C° 0 mm 4 mps 742 mmHg 56%
    08:00 +15°C° 0 mm 4 mps 742 mmHg 54%
    09:00 +17°C° 0 mm 5 mps 742 mmHg 51%
    10:00 +20°C° 0 mm 5 mps 742 mmHg 49%
    11:00 +21°C° 0 mm 5 mps 741 mmHg 47%
    12:00 +23°C° 0 mm 5 mps 741 mmHg 45%
    13:00 +25°C° 0 mm 5 mps 740 mmHg 45%
    14:00 +25°C° 0 mm 5 mps 740 mmHg 45%
    15:00 +25°C° 0 mm 5 mps 739 mmHg 45%
    16:00 +23°C° 0 mm 4 mps 739 mmHg 50%
    17:00 +22°C° 0 mm 4 mps 738 mmHg 55%
    18:00 +20°C° 0 mm 3 mps 738 mmHg 60%
    19:00 +20°C° 0 mm 4 mps 738 mmHg 60%
    20:00 +19°C° 0 mm 4 mps 738 mmHg 59%
    21:00 +19°C° 0 mm 5 mps 738 mmHg 59%
    22:00 +18°C° 0.2 mm 4 mps 738 mmHg 61%
    23:00 +18°C° 0.2 mm 4 mps 738 mmHg 62%
    Show more